Flag for U.S.A. Weather past 2 weeks in Lynchburg, Virginia, U.S.A.

Now
62 °F

Light rain. Fog.


Feels Like: 62 °F
Forecast: 62 / 75 °F
Wind: 3 mph from North

Location: Lynchburg Regional Airport

Current Time: Aug 2, 2014 at 2:53:54 AM

Latest Report: Aug 2, 2014 at 1:54 AM


Visibility: 6 mi

Pressure: 30.15 "Hg

Humidity: 96%

Dew point: 61 °F

Location of LynchburgLocation

Historic Weather in Lynchburg — Graph

°F

Lynchburg temperature yesterday

Maximum temperature yesterday: 70 °F (at 3:54 PM)
Minimum temperature yesterday: 62 °F (at 9:54 PM)
Average temperature yesterday: 66 °F

Past Weeks' High & Low Weather Summary

 TemperatureHumidityPressure
High93 °F (Jul 23, 3:54 PM)100% (Jul 19, 5:54 AM)30.24 "Hg (Jul 19, 5:54 AM)
Low54 °F (Jul 30, 5:54 AM)40% (Jul 23, 3:54 PM)29.67 "Hg (Jul 28, 3:54 AM)
Average72 °F78%30.04 "Hg
* Reported Jul 18 12:54 AM — Aug 2 12:54 AM, Lynchburg, Weather by CustomWeather, © 2014

Note: Actual official high and low records may vary slightly from our data, if they occured in-between our weather recording intervals... More about our weather records

Advertising

Lynchburg weather history for previous 24 hours

 ConditionsComfort  
Time TempWeatherWind HumidityBarometerVisibility
12:54 AM
Aug 2
62 °FLow clouds.6 mph96%30.16 "Hg7 mi
12:04 AM63 °FMostly cloudy.No wind94%30.19 "Hg10 mi
11:54 PM
Aug 1
62 °FOvercast.3 mph96%30.16 "Hg10 mi
10:54 PM62 °FMostly cloudy.5 mph96%30.16 "Hg10 mi
9:54 PM62 °FLight rain. Overcast.3 mph93%30.17 "Hg10 mi
9:03 PM64 °FRain. Fog.8 mph100%30.17 "Hg4 mi
8:54 PM66 °FLight rain. Cloudy.5 mph96%30.14 "Hg8 mi
7:54 PM67 °FMostly cloudy.5 mph97%30.13 "Hg9 mi
6:54 PM68 °FLight rain. Fog.12 mph87%30.14 "Hg5 mi
5:54 PM69 °FLight rain. Mostly cloudy.7 mph87%30.14 "Hg10 mi
4:54 PM70 °FBroken clouds.10 mph84%30.15 "Hg10 mi
3:54 PM70 °FPassing clouds.6 mph84%30.16 "Hg10 mi
2:54 PM69 °FPassing clouds.9 mph84%30.17 "Hg10 mi
1:54 PM68 °FLight rain. Broken clouds.9 mph90%30.17 "Hg10 mi
12:54 PM67 °FLight rain. More clouds than sun.7 mph93%30.20 "Hg7 mi
11:54 AM66 °FLight rain. Overcast.6 mph100%30.19 "Hg7 mi
10:54 AM66 °FRain. Fog.5 mph96%30.20 "Hg5 mi
9:54 AM66 °FRain. Fog.No wind96%30.20 "Hg4 mi
9:04 AM66 °FLight rain. Low clouds.No wind94%30.22 "Hg8 mi
8:54 AM66 °FLight rain. Overcast.No wind96%30.19 "Hg10 mi
8:03 AM66 °FLight rain. Fog.No wind94%30.21 "Hg5 mi
7:54 AM66 °FLight rain. Fog.No wind100%30.18 "Hg2 mi
6:54 AM66 °FLight rain. Mostly cloudy.No wind100%30.18 "Hg7 mi
5:54 AM66 °FLight rain. Mostly cloudy.No wind100%30.16 "Hg7 mi
4:54 AM67 °FLight rain. Fog.No wind97%30.15 "Hg5 mi
3:54 AM67 °FLight rain. Fog.No wind100%30.15 "Hg6 mi
2:54 AM67 °FLight rain. Mostly cloudy.3 mph97%30.15 "Hg8 mi
Weather by CustomWeather, © 2014

See weather overviewHow to use our weather pages